FENGYUN 1C DEB

Satellite information

Favourite Embed

Satellite Type and Status

DEBRISIN ORBIT

Key statistics

Satellite FENGYUN 1C DEB at a glance.

Uptime

9615

Days in orbit

Revolutions

≈ 14.1

Per day

Orbit

SSO

Sun Synchronous Orbit

Inclination

99.5

Latest

Satellite identification and parameters

Extended collection of information and parameters for FENGYUN 1C DEB.

Object identification

Identified? True

Debris? True

Object name: FENGYUN 1C DEB

International designator: 1999-025GK

Object number (NORAD): 29889

Object ID (CCSDS): 29889

Country: PEOPLES REPUBLIC OF CHINA (PRC)

Current information (Y/N): Y

RCS size: SMALL

Orbital parameters

Period: 101.893 minutes

Inclination: 99.4686 deg

SMA: 7226.408 km

Apoapsis: 959.598 km

Periapsis: 736.947 km

RAAN: 358.8405 deg

Eccentricy: 0.01540542

Argument of periapsis: 315.8656 deg

Mean anomaly: 74.2872 deg

Mean motion: 14.13250289 rev/day

Mean motion (dot): 0.00000742 rev/day2

B* drag term: 0.00037803059 1/REarth

Two-line elements (TLE)

Creation date: Sept. 4, 2025, 10:13 a.m.

Reference frame: TEME

Reference center: EARTH

Epoch: Sept. 4, 2025, 6:56 a.m. UTC

TLE line 0: 0 FENGYUN 1C DEB

TLE line 1: 1 29889U 99025GK 25247.28892051 .00000742 00000-0 37803-3 0 9993

TLE line 2: 2 29889 99.4686 358.8405 0154054 315.8656 74.2872 14.13250289959149

Live tracking on map

Real-time ground track for satellite FENGYUN 1C DEB.

In-orbit conjunctions

A list of the most updated potential collisions computed for object FENGYUN 1C DEB.

Target Orbit TCA Probability of collision Miss distance Type
NOAA 16 DEB SSO 2025-01-31 19:20:01 0.0001450152 128.0 (m) DEBRIS
FENGYUN 1C DEB SSO 2024-10-03 02:39:58 0.0002532291 127.0 (m) DEBRIS

Associated space launch

Chinese polar orbiting meteorological satellite

FENGYUN 1C DEB was lifted into orbit during the mission ‘Long March 4B | Feng Yun 1C’, on board a Long March 4B space rocket.

The launch took place on May 10, 1999, 1:33 a.m. from Launch Complex 7.

For more information about the launch, click the button.

Launch to space Long March 4B | Feng Yun 1C
Long March 4B | Feng Yun 1C

Agency: N/A

Status: Launch Successful

Launch date: May 10, 1999, 1:33 a.m. UTC

Rocket: Long March 4B

Launch pad: Launch Complex 7

Location: Taiyuan Satellite Launch Center, People's Republic of China

...

Latest news about this satellite

There are no fresh news available about this satellite. Check back as we update our databases every day.


Newsletter sign-up

Weekly statistics, charts and insights to help you stay on top of the space industry.